This demonstration page uses our WeatherBlox Daily Observations layout. Learn more.

Left ArrowRight Arrow

Hourly Observations for March 17, 2022

Temp ( °F °C ) Dew Point ( °F °C ) Humidity (%) Winds ( mph kmh ) Pressure ( in mb ) Visibility ( mi km ) Precip ( " mm )
12:53 am 00:53 Clear 61 16.1 11 -11.7 14 14 SE 13 20 29.58 1002 10 16 0.00 0.00
1:53 am 01:53 Clear 56 13.3 12 -11.1 17 17 SSW 6 9 29.60 1002 10 16 0.00 0.00
2:53 am 02:53 Clear 52 11.1 12 -11.1 20 20 SE 6 9 29.57 1001 10 16 0.00 0.00
3:53 am 03:53 Clear 51 10.6 13 -10.6 22 22 VRB 3 6 29.57 1001 10 16 0.00 0.00
4:53 am 04:53 Clear 51 10.6 11 -11.7 20 20 W 7 11 29.56 1001 10 16 0.00 0.00
5:53 am 05:53 Clear 57 13.9 7 -13.9 13 13 W 14 22 29.55 1001 10 16 0.00 0.00
6:53 am 06:53 Clear 58 14.4 7 -13.9 13 13 W 18 30 29.56 1001 10 16 0.00 0.00
7:53 am 07:53 Clear 58 14.4 11 -11.7 15 15 W 16 26 29.59 1002 10 16 0.00 0.00
8:53 am 08:53 Sunny 57 13.9 16 -8.9 20 20 WSW 16 26 29.63 1003 10 16 0.00 0.00
9:53 am 09:53 Sunny 66 18.9 23 -5 19 19 W 25 41 29.61 1003 7 11 0.00 0.00
10:53 am 10:53 Sunny 69 20.6 22 -5.6 17 17 W 29 46 29.62 1003 10 16 0.00 0.00
11:53 am 11:53 Sunny 71 21.7 22 -5.6 16 16 W 28 44 29.64 1004 10 16 0.00 0.00
12:53 pm 12:53 Hazy 71 21.7 20 -6.7 14 14 WNW 32 52 29.65 1004 6 10 0.00 0.00
1:53 pm 13:53 Mostly Sunny 73 22.8 19 -7.2 13 13 W 31 50 29.64 1004 10 16 0.00 0.00
2:53 pm 14:53 Sunny 73 22.8 22 -5.6 15 15 W 30 48 29.64 1004 10 16 0.00 0.00
3:53 pm 15:53 Mostly Sunny 73 22.8 23 -5 15 15 NW 28 44 29.66 1004 10 16 0.00 0.00
4:53 pm 16:53 Mostly Sunny 73 22.8 22 -5.6 15 15 WNW 26 43 29.68 1005 10 16 0.00 0.00
5:53 pm 17:53 Mostly Cloudy 71 21.7 24 -4.4 17 17 NNW 29 46 29.71 1006 10 16 0.00 0.00
6:53 pm 18:53 Sunny 65 18.3 31 -0.6 28 28 N 30 48 29.78 1008 10 16 0.00 0.00
7:53 pm 19:53 Mostly Sunny 60 15.6 33 0.6 36 36 N 26 43 29.84 1010 10 16 0.00 0.00
8:53 pm 20:53 Mostly Clear 53 11.7 34 1.1 48 48 N 30 48 29.92 1013 9 14 0.00 0.00
9:53 pm 21:53 Clear 49 9.4 31 -0.6 50 50 N 28 44 29.97 1015 9 14 0.00 0.00
10:53 pm 22:53 Clear 46 7.8 30 -1.1 54 54 N 28 44 30.01 1016 10 16 0.00 0.00
11:53 pm 23:53 Clear 44 6.7 28 -2.2 53 53 N 20 31 30.05 1018 10 16 0.00 0.00

Powered by AerisWeather